World > North America > United States > Florida

Port Richey, Florida Regional Weather

Lat: 28.28N, Lon: 82.73W
Wx Zone: FLZ149
Warning FLW WEATHER ALERT - (More Info. Click Here) Warning
Feedback

Port Richey, FL Regional Weather

Expires:201908191300;;879989
ASUS42 KTBW 191218
RWRFL 
FLORIDA REGIONAL WEATHER ROUNDUP
NATIONAL WEATHER SERVICE TAMPA BAY RUSKIN FL
800 AM EDT MON AUG 19 2019

NOTE: "FAIR" INDICATES FEW OR NO CLOUDS BELOW 12,000 FEET WITH NO
SIGNIFICANT WEATHER AND/OR OBSTRUCTIONS TO VISIBILITY.


FLZ050-056-061-142-242-148-248-149-249-151-251-155-255-
160-260-191300-
WEST CENTRAL FLORIDA
  
CITY           SKY/WX    TMP DP  RH WIND       PRES   REMARKS
CRYSTAL RIVER  FAIR      72  72 100 CALM      30.09S                  
INVERNESS      FAIR      72  72 100 CALM      30.10R FOG              
BROOKSVILLE    FAIR      73  72  96 CALM      30.10R                  
CLEARWATER AIR FAIR      75  72  88 CALM      30.09R                  
ST PETE CLEARW FAIR      79  73  82 CALM      30.09R                  
TAMPA INTL     PTSUNNY   78  72  81 E3        30.09R                  
PLANT CITY     FAIR      77  75  94 CALM      30.12R                  
MACDILL AFB    FAIR      76  74  92 E5        30.08R                  
PETER O KNIGHT CLOUDY   N/A N/A N/A NE6       30.09R                  
ST PETERSBURG  FAIR      80  75  84 NE8       30.07R                  
SARASOTA       FAIR      77  73  87 NE5       30.06R                  
VENICE         FAIR      79  73  83 E8        30.07S                  

STATION/POSITION SKY/WX   TEMP    WIND        PRES    WAVE   SWELL
                          AIR SEA DIR/SP/G            HT/PER HT/PER
                          (F)     (DEG/KT/KT) (MB)    (FT/S) (FT/S)
27.3N   84.2W                 85                N/A     3/ 8
CLEARWATER BEACH           78 85   70/  5/  7 1018.9R
MIDDLE TAMPA BAY           79     100/  7/  9 1018.6R
VENICE                     78 85   70/  6/  8 1018.1R

$$

SKY/WX - Weather  TMP - Temperature  DP - Dew Point  RH - Relative Humidity
WIND - Wind Direction/Speed PRES - Barometric Pressure VSB - Visibility
WCI - Wind Chill Index E13G22 Wind - East Wind 13 mph/Gusts of 22 mph